• In Belarus
  • List of Countries
  • For 7 days
  • Water Temperature
  • Weather Map
  • Weather Widgets
  • user-avatar
    Login

    Hourly Weather Salta

    Today, 19 September, Thursday

    Time Temperature Precipitation Wind Pressure Humidity
    00:00 +13°C° 0 mm 1 mps 645 mmHg 57%
    01:00 +12°C° 0 mm 1 mps 644 mmHg 57%
    02:00 +12°C° 0 mm 1 mps 644 mmHg 57%
    03:00 +12°C° 0 mm 1 mps 643 mmHg 55%
    04:00 +12°C° 0 mm 1 mps 643 mmHg 53%
    05:00 +12°C° 0 mm 1 mps 643 mmHg 51%
    06:00 +14°C° 0 mm 1 mps 644 mmHg 44%
    07:00 +18°C° 0 mm 1 mps 645 mmHg 36%
    08:00 +20°C° 0 mm 1 mps 646 mmHg 29%
    09:00 +23°C° 0 mm 1 mps 647 mmHg 24%
    10:00 +27°C° 0 mm 1 mps 647 mmHg 19%
    11:00 +30°C° 0 mm 2 mps 648 mmHg 13%
    12:00 +31°C° 0 mm 2 mps 648 mmHg 13%
    13:00 +33°C° 0 mm 3 mps 648 mmHg 12%
    14:00 +34°C° 0 mm 4 mps 648 mmHg 11%
    15:00 +32°C° 0 mm 4 mps 648 mmHg 17%
    16:00 +29°C° 0 mm 5 mps 648 mmHg 22%
    17:00 +27°C° 0 mm 5 mps 648 mmHg 28%
    18:00 +23°C° 0 mm 4 mps 648 mmHg 37%
    19:00 +20°C° 0 mm 3 mps 649 mmHg 46%
    20:00 +17°C° 0 mm 2 mps 649 mmHg 55%
    21:00 +15°C° 0 mm 2 mps 649 mmHg 60%
    22:00 +14°C° 0 mm 2 mps 649 mmHg 64%
    23:00 +12°C° 0 mm 1 mps 649 mmHg 69%

    Tomorrow, 20 September, Friday

    Time Temperature Precipitation Wind Pressure Humidity
    00:00 +12°C° 0 mm 1 mps 649 mmHg 67%
    01:00 +12°C° 0 mm 1 mps 649 mmHg 65%
    02:00 +12°C° 0 mm 1 mps 650 mmHg 64%
    03:00 +12°C° 0 mm 1 mps 650 mmHg 62%
    04:00 +12°C° 0 mm 1 mps 650 mmHg 61%
    05:00 +12°C° 0 mm 1 mps 650 mmHg 60%
    06:00 +12°C° 0 mm 1 mps 651 mmHg 56%
    07:00 +13°C° 0 mm 1 mps 651 mmHg 52%
    08:00 +13°C° 0 mm 2 mps 652 mmHg 48%
    09:00 +14°C° 0 mm 2 mps 652 mmHg 43%
    10:00 +16°C° 0 mm 3 mps 652 mmHg 39%
    11:00 +17°C° 0 mm 3 mps 652 mmHg 34%
    12:00 +18°C° 0 mm 3 mps 652 mmHg 33%
    13:00 +19°C° 0 mm 4 mps 652 mmHg 32%
    14:00 +20°C° 0 mm 4 mps 651 mmHg 31%
    15:00 +19°C° 0 mm 4 mps 651 mmHg 33%
    16:00 +18°C° 0 mm 4 mps 651 mmHg 35%
    17:00 +17°C° 0 mm 4 mps 651 mmHg 37%
    18:00 +14°C° 0 mm 3 mps 651 mmHg 43%
    19:00 +12°C° 0 mm 2 mps 651 mmHg 49%
    20:00 +9°C° 0 mm 1 mps 651 mmHg 56%
    21:00 +9°C° 0 mm 1 mps 651 mmHg 57%
    22:00 +9°C° 0 mm 1 mps 652 mmHg 57%
    23:00 +8°C° 0 mm 1 mps 652 mmHg 58%

    Day after tomorrow, 21 September, Saturday

    Time Temperature Precipitation Wind Pressure Humidity
    00:00 +8°C° 0 mm 1 mps 652 mmHg 58%
    01:00 +9°C° 0 mm 1 mps 652 mmHg 57%
    02:00 +9°C° 0 mm 1 mps 652 mmHg 56%
    03:00 +8°C° 0 mm 1 mps 652 mmHg 58%
    04:00 +7°C° 0 mm 1 mps 651 mmHg 61%
    05:00 +7°C° 0 mm 1 mps 651 mmHg 64%
    06:00 +9°C° 0 mm 1 mps 652 mmHg 56%
    07:00 +11°C° 0 mm 1 mps 653 mmHg 49%
    08:00 +14°C° 0 mm 1 mps 654 mmHg 42%
    09:00 +16°C° 0 mm 1 mps 654 mmHg 39%
    10:00 +18°C° 0 mm 2 mps 654 mmHg 37%
    11:00 +20°C° 0 mm 3 mps 654 mmHg 34%
    12:00 +21°C° 0 mm 3 mps 654 mmHg 32%
    13:00 +22°C° 0 mm 3 mps 654 mmHg 31%
    14:00 +24°C° 0 mm 3 mps 653 mmHg 29%
    15:00 +24°C° 0 mm 3 mps 653 mmHg 30%
    16:00 +22°C° 0 mm 3 mps 653 mmHg 32%
    17:00 +22°C° 0 mm 3 mps 652 mmHg 33%
    18:00 +19°C° 0 mm 2 mps 652 mmHg 42%
    19:00 +16°C° 0 mm 2 mps 652 mmHg 52%
    20:00 +13°C° 0 mm 1 mps 652 mmHg 61%
    21:00 +13°C° 0 mm 1 mps 652 mmHg 64%
    22:00 +12°C° 0 mm 1 mps 652 mmHg 67%
    23:00 +10°C° 0 mm 0 mps 652 mmHg 70%

    22 September, Sunday

    Time Temperature Precipitation Wind Pressure Humidity
    00:00 +11°C° 0 mm 1 mps 652 mmHg 72%
    01:00 +11°C° 0 mm 1 mps 652 mmHg 74%
    02:00 +10°C° 0 mm 1 mps 652 mmHg 76%
    03:00 +10°C° 0 mm 1 mps 652 mmHg 76%
    04:00 +10°C° 0 mm 1 mps 652 mmHg 76%
    05:00 +10°C° 0 mm 1 mps 652 mmHg 77%
    06:00 +12°C° 0 mm 1 mps 653 mmHg 68%
    07:00 +14°C° 0 mm 1 mps 654 mmHg 59%
    08:00 +16°C° 0 mm 0 mps 655 mmHg 50%
    09:00 +20°C° 0 mm 1 mps 655 mmHg 46%
    10:00 +21°C° 0 mm 2 mps 656 mmHg 41%
    11:00 +24°C° 0 mm 3 mps 656 mmHg 37%
    12:00 +25°C° 0 mm 3 mps 655 mmHg 35%
    13:00 +25°C° 0 mm 4 mps 655 mmHg 33%
    14:00 +26°C° 0 mm 4 mps 654 mmHg 31%
    15:00 +26°C° 0 mm 4 mps 654 mmHg 31%
    16:00 +25°C° 0 mm 4 mps 653 mmHg 32%
    17:00 +25°C° 0 mm 3 mps 653 mmHg 32%
    18:00 +21°C° 0 mm 3 mps 652 mmHg 40%
    19:00 +18°C° 0 mm 2 mps 652 mmHg 48%
    20:00 +15°C° 0 mm 1 mps 652 mmHg 56%
    21:00 +14°C° 0 mm 1 mps 652 mmHg 58%
    22:00 +14°C° 0 mm 1 mps 652 mmHg 60%
    23:00 +13°C° 0 mm 1 mps 652 mmHg 62%

    23 September, Monday

    Time Temperature Precipitation Wind Pressure Humidity
    00:00 +13°C° 0 mm 1 mps 651 mmHg 62%
    01:00 +12°C° 0 mm 1 mps 651 mmHg 63%
    02:00 +12°C° 0 mm 1 mps 650 mmHg 63%
    03:00 +12°C° 0 mm 1 mps 650 mmHg 62%
    04:00 +11°C° 0 mm 1 mps 650 mmHg 62%
    05:00 +11°C° 0 mm 1 mps 650 mmHg 61%
    06:00 +14°C° 0 mm 1 mps 651 mmHg 53%
    07:00 +15°C° 0 mm 0 mps 652 mmHg 45%
    08:00 +18°C° 0 mm 0 mps 653 mmHg 38%
    09:00 +22°C° 0 mm 1 mps 653 mmHg 34%
    10:00 +24°C° 0 mm 2 mps 654 mmHg 30%
    11:00 +26°C° 0 mm 2 mps 654 mmHg 26%
    12:00 +27°C° 0 mm 3 mps 654 mmHg 24%
    13:00 +28°C° 0 mm 3 mps 653 mmHg 23%
    14:00 +29°C° 0 mm 3 mps 653 mmHg 22%
    15:00 +28°C° 0 mm 3 mps 653 mmHg 23%
    16:00 +27°C° 0 mm 4 mps 653 mmHg 24%
    17:00 +26°C° 0 mm 4 mps 653 mmHg 25%
    18:00 +24°C° 0 mm 3 mps 653 mmHg 31%
    19:00 +20°C° 0 mm 2 mps 653 mmHg 36%
    20:00 +17°C° 0 mm 2 mps 653 mmHg 42%
    21:00 +16°C° 0 mm 2 mps 654 mmHg 44%
    22:00 +15°C° 0 mm 1 mps 654 mmHg 45%
    23:00 +15°C° 0 mm 1 mps 654 mmHg 47%

    24 September, Tuesday

    Time Temperature Precipitation Wind Pressure Humidity
    00:00 +14°C° 0 mm 1 mps 654 mmHg 49%
    01:00 +14°C° 0 mm 1 mps 654 mmHg 51%
    02:00 +13°C° 0 mm 1 mps 654 mmHg 52%
    03:00 +13°C° 0 mm 1 mps 654 mmHg 54%
    04:00 +12°C° 0 mm 1 mps 653 mmHg 56%
    05:00 +12°C° 0 mm 1 mps 653 mmHg 58%
    06:00 +14°C° 0 mm 1 mps 654 mmHg 51%
    07:00 +16°C° 0 mm 1 mps 656 mmHg 44%
    08:00 +20°C° 0 mm 1 mps 657 mmHg 38%
    09:00 +21°C° 0 mm 1 mps 657 mmHg 34%
    10:00 +23°C° 0 mm 2 mps 657 mmHg 31%
    11:00 +25°C° 0 mm 2 mps 657 mmHg 27%
    12:00 +26°C° 0 mm 3 mps 657 mmHg 26%
    13:00 +27°C° 0 mm 3 mps 656 mmHg 25%
    14:00 +28°C° 0 mm 4 mps 655 mmHg 23%
    15:00 +27°C° 0 mm 4 mps 655 mmHg 25%
    16:00 +26°C° 0 mm 4 mps 654 mmHg 26%
    17:00 +25°C° 0 mm 4 mps 654 mmHg 28%
    18:00 +21°C° 0 mm 3 mps 654 mmHg 33%
    19:00 +19°C° 0 mm 2 mps 654 mmHg 39%
    20:00 +16°C° 0 mm 1 mps 654 mmHg 45%
    21:00 +15°C° 0 mm 1 mps 654 mmHg 47%
    22:00 +15°C° 0 mm 1 mps 654 mmHg 49%
    23:00 +14°C° 0 mm 1 mps 654 mmHg 50%
    Show more